Gwinn, MI

2:03 AM EDT on June 22, 2018 (GMT -0400)
Sawyer International

Weather History for KSAW - June, 2018

Change the Weather History Date:

Thursday, June 14, 2018

  Actual Average (KESC) Record (KESC)
Temperature  
Mean Temperature 62 °F -  
Max Temperature 78 °F 67 °F 82 °F (2007)
Min Temperature 46 °F 53 °F 35 °F (2014)
Degree Days  
Heating Degree Days 3    
Growing Degree Days 12 (Base 50)    
Moisture  
Dew Point 42 °F    
Average Humidity 54    
Maximum Humidity 81    
Minimum Humidity 27    
Precipitation  
Precipitation 0.00 in - - ()
Sea Level Pressure  
Sea Level Pressure 30.02 in    
Wind  
Wind Speed 4 mph (NE)    
Max Wind Speed 13 mph    
Max Gust Speed -    
Visibility 10 miles    
Events      
Averages and records for this station are not official NWS values.
T = Trace of Precipitation, MM = Missing Value Source: NWS Daily Summary

Daily Weather History Graph

Daily Weather History Graph

Search for Another Location

Airport or City:

Astronomy

Jun. 14, 2018 Rise Set
Actual Time 5:56 AM EDT 9:43 PM EDT
Civil Twilight 5:17 AM EDT 10:22 PM EDT
Nautical Twilight 4:25 AM EDT 11:14 PM EDT
Astronomical Twilight 3:11 AM EDT 12:29 AM EDT
Moon 6:57 AM EDT (6/14) 10:40 PM EDT (6/14)
Length of Visible Light 17h 04m
Length of Day
15h 46m
New Moon, 1% of the Moon is Illuminated
Jun 14
New Moon
Jun 20
First Quarter
Jun 28
Full
Jul 6
Last Quarter
Jul 12
New

Hourly Weather History & Observations

Time (EDT) Temp. Dew Point Humidity Pressure Visibility Wind Dir Wind Speed Gust Speed Precip Events Conditions
12:18 AM 57.2 °F 42.8 °F 59% 29.96 in 10.0 mi NW 4.6 mph - N/A   Clear
12:38 AM 56.3 °F 42.4 °F 60% 29.96 in 10.0 mi WNW 5.8 mph - N/A   Clear
12:58 AM 56.3 °F 42.3 °F 59% 29.96 in 10.0 mi WNW 8.1 mph - N/A   Clear
1:18 AM 58.8 °F 43.0 °F 56% 29.97 in 10.0 mi NNE 9.2 mph - N/A   Clear
1:38 AM 58.5 °F 41.0 °F 52% 29.97 in 10.0 mi Calm Calm - N/A   Clear
1:58 AM 55.9 °F 42.1 °F 60% 29.97 in 10.0 mi Calm Calm - N/A   Clear
2:18 AM 55.6 °F 42.3 °F 61% 29.97 in 10.0 mi Calm Calm - N/A   Clear
2:38 AM 50.5 °F 41.9 °F 72% 29.98 in 10.0 mi Calm Calm - N/A   Clear
2:58 AM 51.3 °F 41.7 °F 70% 29.99 in 10.0 mi Calm Calm - N/A   Clear
3:18 AM 52.7 °F 41.5 °F 66% 29.99 in 10.0 mi Calm Calm - N/A   Clear
3:38 AM 49.6 °F 41.5 °F 74% 29.99 in 10.0 mi Calm Calm - N/A   Clear
3:58 AM 49.8 °F 41.7 °F 74% 30.00 in 10.0 mi Calm Calm - N/A   Clear
4:18 AM 48.7 °F 40.8 °F 74% 30.01 in 10.0 mi Calm Calm - N/A   Clear
4:38 AM 50.2 °F 41.4 °F 72% 30.02 in 10.0 mi Calm Calm - N/A   Clear
4:58 AM 49.6 °F 42.1 °F 75% 30.02 in 10.0 mi Calm Calm - N/A   Clear
5:18 AM 48.6 °F 41.9 °F 78% 30.03 in 10.0 mi Calm Calm - N/A   Clear
5:38 AM 49.6 °F 41.7 °F 74% 30.04 in 10.0 mi Calm Calm - N/A   Clear
5:58 AM 47.8 °F 41.0 °F 77% 30.04 in 10.0 mi WNW 3.5 mph - N/A   Clear
6:47 AM 46.4 °F 41.0 °F 81% 30.06 in 10.0 mi Calm Calm - N/A   Clear
8:47 AM 62.6 °F 44.6 °F 52% 30.07 in 10.0 mi NNE 8.1 mph - N/A   Clear
9:47 AM 64.4 °F 44.6 °F 49% 30.06 in 10.0 mi NNE 6.9 mph - N/A   Clear
10:47 AM 69.8 °F 44.6 °F 40% 30.06 in 10.0 mi Calm Calm - N/A   Clear
11:47 AM 71.6 °F 42.8 °F 35% 30.08 in 10.0 mi Calm Calm - N/A   Clear
12:47 PM 75.2 °F 42.8 °F 31% 30.09 in 10.0 mi Calm Calm - N/A   Clear
1:48 PM 77.0 °F 42.8 °F 29% 30.08 in 10.0 mi East 5.8 mph - N/A   Clear
2:45 PM 77.0 °F 42.8 °F 29% 30.07 in 10.0 mi NE 5.8 mph - N/A   Scattered Clouds
3:47 PM 77.0 °F 42.8 °F 29% 30.05 in 10.0 mi NE 11.5 mph - N/A   Scattered Clouds
4:47 PM 78.8 °F 42.8 °F 28% 30.04 in 10.0 mi ENE 12.7 mph - N/A   Partly Cloudy
5:45 PM 77.0 °F 42.8 °F 29% 30.04 in 10.0 mi ENE 10.4 mph - N/A   Partly Cloudy
6:45 PM 77.0 °F 42.8 °F 29% 30.03 in 10.0 mi ENE 11.5 mph - N/A   Partly Cloudy
7:45 PM 75.2 °F 39.2 °F 27% 30.02 in 10.0 mi East 11.5 mph - N/A   Clear
8:45 PM 71.6 °F 42.8 °F 35% 30.02 in 10.0 mi East 8.1 mph - N/A   Clear
9:45 PM 68.0 °F 42.8 °F 40% 30.03 in 10.0 mi East 5.8 mph - N/A   Clear